Location: Arbon
(43.0005°N, 0.7472°E)
Time: 16:26:59
(UTC+00:00)

Cosmos 2233 Rocket - Pass Details

Date: 07 August 2020
Orbit: 952 x 991 km, 82.9° (Epoch: 22 September)

Event Time Altitude Azimuth Distance (km) Brightness Sun altitude
Exits shadow 00:10:41 53° 279° (W) 1,203 4.4 -30.6°
Maximum altitude 00:10:47 53° 282° (WNW) 1,202 4.4 -30.6°
Drops below altitude 10° 00:16:59 10° 359° (N) 2,764 7.3 -30.6°
Sets 00:19:36 0° 4° (N) 3,717 8.2 -30.5°
